OSCAR 7 1 07530U 74089B 26106.80566243 -.00000040 00000-0 40452-4 0 9996 2 07530 101.9942 119.4056 0011891 247.5514 296.5364 12.53697138352827 OSCAR 11 (UOSAT 2) 1 14781U 84021B 26106.46762200 .00000816 00000-0 88984-4 0 9994 2 14781 97.8007 72.7583 0008500 37.5864 322.5946 14.90633695247934 OSCAR 19 (LUSAT) 1 20442U 90005G 26106.57584663 .00000075 00000-0 43653-4 0 9992 2 20442 98.8899 126.6712 0012112 31.8972 328.2942 14.34103489893565 EYESAT A 1 22825U 93061C 26106.88602292 .00000056 00000-0 38217-4 0 9996 2 22825 98.6916 174.3111 0007231 281.5789 78.4582 14.30925414698236 ITAMSAT 1 22826U 93061D 26106.95356781 .00000061 00000-0 39814-4 0 9994 2 22826 98.6863 174.2898 0007745 262.2463 97.7841 14.31350696698556 RADIO ROSTO 1 23439U 94085A 26106.92051557 -.00000053 00000-0 -28960-3 0 9994 2 23439 64.8195 42.2992 0154132 14.9992 345.5430 11.27583848288991 JAS 2 1 24278U 96046B 26106.87008483 -.00000020 00000-0 18688-4 0 9999 2 24278 98.5316 324.1138 0348834 255.5235 100.6968 13.53271232464874 TECHSAT 1B 1 25397U 98043D 26106.74199182 .00000024 00000-0 30711-4 0 9998 2 25397 99.0059 97.9572 0002085 58.5198 301.6183 14.24416052442584 ISS (ZARYA) 1 25544U 98067A 26106.84451400 .00004242 00000-0 85733-4 0 9993 2 25544 51.6329 243.6903 0006573 315.5681 44.4780 15.48789484562249 PCSAT 1 26931U 01043C 26106.55514960 .00000058 00000-0 52474-4 0 9998 2 26931 67.0519 43.6767 0006654 264.3453 95.6890 14.31931581281624 SAUDISAT 1C 1 27607U 02058C 26106.85646821 .00000499 00000-0 77041-4 0 9997 2 27607 64.5523 318.7220 0075550 273.6270 85.6198 14.82910703255364 CUTE-1 1 27844U 03031E 26106.78011330 .00000189 00000-0 10099-3 0 9990 2 27844 98.6764 116.1074 0009706 11.4859 348.6539 14.24296809182933 CUBESAT XI 4 1 27848U 03031J 26106.52703389 .00000164 00000-0 91279-4 0 9991 2 27848 98.6796 115.6194 0010021 29.7735 330.4012 14.23587215182608 MOZHAYETS 4 1 27939U 03042A 26106.97425944 .00001013 00000-0 16452-3 0 9994 2 27939 98.3459 289.6087 0012531 101.5368 51.2611 14.73356919206536 CUBESAT XI 5 1 28895U 05043F 26106.70384452 .00000865 00000-0 14455-3 0 9993 2 28895 98.2906 261.0661 0014850 44.9479 315.2927 14.72467493 92709 CUTE-1.7+APD 2 1 32785U 08021C 26106.91754840 .00002750 00000-0 17874-3 0 9993 2 32785 97.8247 87.1040 0007460 229.8104 130.2472 15.08866185975959 SEEDS 1 32791U 08021J 26106.72514753 .00011304 00000-0 38407-3 0 9996 2 32791 97.7525 101.7944 0004320 133.9152 226.2445 15.30647529977884 YUBELEINY 1 32953U 08025A 26106.93509698 -.00000025 00000-0 -25020-3 0 9992 2 32953 82.5071 33.5334 0020617 84.3077 276.0353 12.43177385812089 KKS-1 (KISEKI) 1 33499U 09002H 26106.92641201 .00000799 00000-0 10528-3 0 9993 2 33499 98.1190 28.4074 0009028 122.9519 237.2563 14.82963092927113 SWISSCUBE 1 35932U 09051B 26106.65882921 .00000639 00000-0 13613-3 0 9998 2 35932 98.4071 13.4711 0007875 50.7783 309.4116 14.62359440880162 BEESAT 1 35933U 09051C 26106.70510474 .00000522 00000-0 11495-3 0 9993 2 35933 98.4000 13.2810 0006498 63.9237 296.2631 14.61617266880205 ITUPSAT 1 1 35935U 09051E 26106.98493446 .00000499 00000-0 11327-3 0 9991 2 35935 98.4087 12.8212 0008755 71.2126 289.0023 14.60345696879803 XIWANG-1 (HOPE-1) 1 36122U 09072B 26106.91259294 .00000365 00000-0 10711-2 0 9994 2 36122 100.3973 61.7380 0007800 18.3600 341.7794 13.16439220784945 TISAT 1 1 36799U 10035E 26106.39859615 .00011046 00000-0 39065-3 0 9992 2 36799 98.0680 47.6027 0004758 97.8653 262.3126 15.29358212858253 JUGNU 1 37839U 11058B 26106.60177426 .00000397 00000-0 67894-4 0 9990 2 37839 19.9622 322.5771 0018608 116.4331 265.1470 14.13757399750309 SRMSAT 1 37841U 11058D 26106.23675398 .00000363 00000-0 52901-4 0 9999 2 37841 19.9721 74.4374 0011613 241.6849 237.7724 14.11560608749058 HORYU 2 1 38340U 12025D 26106.62704889 .00002064 00000-0 21650-3 0 9996 2 38340 98.2077 237.0957 0008496 32.3083 327.8653 14.90691040739559 STRAND 1 1 39090U 13009E 26106.85771746 .00000180 00000-0 74947-4 0 9998 2 39090 98.3910 288.6049 0009648 59.1284 301.0850 14.37126269688253 CUBEBUG 1 1 39153U 13018D 26106.41094125 .00001223 00000-0 11196-3 0 9994 2 39153 98.1593 263.6432 0011588 357.9192 2.1978 14.96914006701828 ZACUBE 1 39417U 13066B 26106.47430911 .00002430 00000-0 19290-3 0 9997 2 39417 97.8130 68.4832 0044892 98.0747 262.5573 15.00673871671470 TRITON 1 1 39427U 13066M 26106.90433185 .00001043 00000-0 13074-3 0 9995 2 39427 97.8282 18.1125 0092037 74.2310 286.9029 14.81400498665012 GOMX 1 1 39430U 13066Q 26106.82803810 .00000773 00000-0 12396-3 0 9991 2 39430 97.6536 311.1527 0127565 274.7470 83.9179 14.69235408660904 CUBEBUG 2 1 39440U 13066AA 26106.42583080 .00001398 00000-0 13513-3 0 9998 2 39440 97.8866 55.1835 0056662 231.2901 128.3245 14.93340613667778 FUNCUBE 1 1 39444U 13066AE 26106.65557582 .00005674 00000-0 36089-3 0 9999 2 39444 97.8238 76.8736 0038542 54.9890 305.4945 15.08603541670384 UWE-3 1 39446U 13066AG 26106.37736610 .00001434 00000-0 12847-3 0 9997 2 39446 97.8662 62.0811 0049674 163.7462 196.5366 14.96537672668335 UNISAT 6 1 40012U 14033C 26106.67299773 .00001692 00000-0 18787-3 0 9995 2 40012 97.7800 260.5098 0043956 271.1218 88.4963 14.87884173637015 DUCHIFAT 1 1 40021U 14033M 26106.85986558 .00039623 00000-0 59407-3 0 9998 2 40021 98.0553 157.9300 0003191 274.5948 85.4940 15.54834835646199 QB50P1 1 40025U 14033R 26106.57353656 .00005388 00000-0 27398-3 0 9993 2 40025 98.0994 113.4418 0010697 80.1464 280.0975 15.17281249643688 OBJECT G 1 40905U 15049G 26106.95040329 .00025967 00000-0 29874-3 0 9996 2 40905 97.4634 147.5386 0007176 90.3480 269.8600 15.61961315586875 LILACSAT 2 1 40908U 15049K 26106.95795933 .00011242 00000-0 20610-3 0 9997 2 40908 97.4739 141.5375 0008865 111.8661 248.3534 15.49430496586260 LQSAT 1 40958U 15057A 26106.95220360 .00000359 00000-0 58019-4 0 9990 2 40958 97.6674 103.3677 0018467 109.0400 251.2814 14.76703008566279 CHUBUSAT 2 1 41338U 16012B 26106.96575955 .00003905 00000-0 17037-3 0 9993 2 41338 30.9993 2.9547 0008552 174.6692 185.4041 15.20261106559091 CHUBUSAT 3 1 41339U 16012C 26106.93426684 .00002529 00000-0 11602-3 0 9998 2 41339 31.0061 11.3167 0008961 163.1901 196.9037 15.18046584558888 PRATHAM 1 41783U 16059A 26106.52238981 .00000443 00000-0 86519-4 0 9991 2 41783 97.8327 106.0952 0032540 56.6614 303.7699 14.67108345510479 ALSAT 1N 1 41789U 16059G 26106.95925689 .00000579 00000-0 10580-3 0 9996 2 41789 97.8021 113.0387 0026773 26.7775 333.4807 14.69204242511010